Hourly Data Report for June 26, 2021

HALL BEACH A
NUNAVUT
Current Station Operator: NAVCAN

68°46'33.000" N
81°14'33.000" W
9.10 m
2402354
71293
YUX

Download Data

Hourly Data (June 2021)
Hourly Data Report for June 26, 2021
TIME
LST
Temp Definition
°C
Dew Point Definition
°C
Rel Hum Definition
%
Precip. Amount Definition
mm

Wind Dir Definition
10's deg

Wind Spd Definition
km/h
Visibility Definition
km
Stn Press Definition
kPa
Hmdx Definition


Wind Chill Definition


Weather Definition


00:00 -0.5 -0.5 100 0.0 4 15 16.1 100.14   -5 LegendNANA
01:00 -0.3 -0.3 100 0.0 3 11 16.1 100.18   -4 LegendNANA
02:00 0.1 0.1 100 0.0 4 11 16.1 100.20     LegendNANA
03:00 0.4 0.4 100 0.0 2 8 16.1 100.24     LegendNANA
04:00 1.0 0.7 98 0.0 5 8 16.1 100.23     LegendNANA
05:00 0.7 0.1 96 0.0 36 17 16.1 100.25     LegendNANA
06:00 1.2 0.3 94 0.0 35 13 16.1 100.28     LegendNANA
07:00 1.5 0.6 94 0.0 2 13 16.1 100.30     LegendNANA
08:00 2.5 1.0 90 0.0 1 18 16.1 100.31     LegendNANA
09:00 2.6 1.3 91 0.0 36 18 16.1 100.33     LegendNANA
10:00 2.7 1.1 89 0.0 34 15 16.1 100.33     LegendNANA
11:00 3.3 1.6 88 0.0 33 15 16.1 100.30     LegendNANA
12:00 4.6 2.3 85 0.0 31 22 16.1 100.28     LegendNANA
13:00 4.7 2.6 86 0.0 32 18 16.1 100.28     LegendNANA
14:00 4.3 2.7 89 0.0 33 17 16.1 100.27     LegendNANA
15:00 4.6 3.0 89 0.0 32 21 16.1 100.29     LegendNANA
16:00 4.7 3.2 90 0.0 33 24 16.1 100.31     LegendNANA
17:00 4.5 3.0 90 0.0 33 21 16.1 100.32     LegendNANA
18:00 4.3 3.0 91 0.0 33 22 16.1 100.35     LegendNANA
19:00 4.0 3.3 95 0.0 32 22 16.1 100.37     LegendNANA
20:00 3.3 2.6 95 0.0 32 22 16.1 100.36     LegendNANA
21:00 3.1 2.4 95 0.0 31 28 16.1 100.36     LegendNANA
22:00 2.8 1.8 93 0.0 32 18 16.1 100.36     LegendNANA
23:00 2.7 1.7 93 0.0 32 28 16.1 100.31     LegendNANA

Notes on Data Quality.

Legend

  • E = Estimated
  • M = Missing
  • NA = Not Available*
  • [empty] = Indicates an unobserved value
Date modified: